Hourly Data Report for July 04, 2021

TORONTO CITY
ONTARIO
Current Station Operator: ECCC - MSC

43°40'00.000" N
79°24'00.000" W
112.50 m
6158355
71508
XTO

Download Data

Hourly Data (July 2021)
Hourly Data Report for July 4, 2021
TIME
LST
Temp Definition
°C
Dew Point Definition
°C
Rel Hum Definition
%
Precip. Amount Definition
mm

Wind Dir Definition
10's deg

Wind Spd Definition
km/h
Visibility Definition
km
Stn Press Definition
kPa
Hmdx Definition


Wind Chill Definition


Weather Definition


00:00 19.4 14.4 73 0.0       99.70     LegendNANA
01:00 18.8 15.7 82 0.0       99.70     LegendNANA
02:00 18.5 16.3 87 0.0       99.67     LegendNANA
03:00 18.2 16.0 87 0.0       99.67     LegendNANA
04:00 18.1 15.8 87 0.0       99.71     LegendNANA
05:00 17.6 15.8 89 0.0       99.77     LegendNANA
06:00 17.9 16.1 89 0.0       99.81     LegendNANA
07:00 19.3 16.6 84 0.0       99.87     LegendNANA
08:00 19.5 16.9 85 0.0       99.93     LegendNANA
09:00 19.9 16.3 80 0.0       99.97     LegendNANA
10:00 20.1 16.6 80 0.0       100.01 25   LegendNANA
11:00 20.5 15.9 75 0.0       100.04 25   LegendNANA
12:00 21.9 15.8 69 0.0       100.04 26   LegendNANA
13:00 22.5 16.1 67 0.0       100.06 27   LegendNANA
14:00 23.1 15.2 61 0.0       100.06 27   LegendNANA
15:00 23.7 14.2 55 0.0       100.04 27   LegendNANA
16:00 23.0 11.6 49 0.0       100.03 25   LegendNANA
17:00 22.5 12.4 53 0.0       100.02 25   LegendNANA
18:00 21.8 12.3 55 0.0       100.05     LegendNANA
19:00 21.3 11.5 53 0.0       100.09     LegendNANA
20:00 20.3 12.9 62 0.0       100.09     LegendNANA
21:00 20.8 9.1 47 0.0       100.09     LegendNANA
22:00 20.6 10.4 52 0.0       100.10     LegendNANA
23:00 20.4 12.4 60 0.0       100.14     LegendNANA

Notes on Data Quality.

Legend

  • E = Estimated
  • M = Missing
  • NA = Not Available*
  • [empty] = Indicates an unobserved value
Date modified: